ProjectID,Date,Electric Generation,Electric Utility Import,Facility Electric Load
,YYYY-MM-DD,kW,kW,kW
265,2015-06-16,391.9166666666667,,656.7083333333334
265,2015-06-17,474.0833333333333,,871.4166666666666
265,2015-06-18,407.5416666666667,,804.875
265,2015-06-19,380.5833333333333,,777.9583333333333
265,2015-06-20,398.5,,795.8333333333333
265,2015-06-21,359.0416666666667,,756.4166666666667
265,2015-06-22,522.875,,920.2083333333333
265,2015-06-23,455.3333333333333,,852.7083333333333
265,2015-06-24,532.9583333333334,,930.2916666666667
265,2015-06-25,416.875,,814.2083333333333
265,2015-06-26,581.9166666666666,,979.25
265,2015-06-27,85.5,,482.875
265,2015-06-28,157.29166666666666,,554.625
265,2015-06-29,363.9166666666667,,761.25
265,2015-06-30,241.91666666666666,,639.2916666666666
265,2015-07-01,302.4583333333333,,699.8333333333333
265,2015-07-02,476.875,,874.2083333333333
265,2015-07-03,555.2916666666666,,952.625
265,2015-07-04,440.5416666666667,,837.875
265,2015-07-05,481.0833333333333,,878.4583333333333
265,2015-07-06,466.2083333333333,,863.5833333333333
265,2015-07-07,422.875,,820.2916666666667
265,2015-07-08,450.5833333333333,,847.9583333333333
265,2015-07-09,112.66666666666667,,510.0416666666667
265,2015-07-10,551.6666666666666,,949.0416666666666
265,2015-07-11,521.0,,918.4166666666667
265,2015-07-12,452.4166666666667,,849.7916666666667
265,2015-07-13,508.1666666666667,,905.625
265,2015-07-14,185.83333333333334,,583.2916666666666
265,2015-07-15,402.375,,799.7916666666667
265,2015-07-16,575.9166666666666,,973.2916666666666
265,2015-07-17,213.75,,611.2083333333333
265,2015-07-18,409.375,,806.8333333333333
265,2015-07-19,417.0,,814.4583333333333
265,2015-07-20,456.25,,611.7083333333334
265,2015-07-21,413.0,,413.0
265,2015-07-22,525.875,,631.4166666666666
265,2015-07-23,490.8333333333333,,490.8333333333333
265,2015-07-24,525.0416666666666,,525.0416666666666
265,2015-07-25,321.0833333333333,,321.0833333333333
265,2015-07-26,425.6666666666667,,425.6666666666667
265,2015-07-27,495.7083333333333,,495.7083333333333
265,2015-07-28,514.125,,864.4583333333333
265,2015-07-29,481.7916666666667,,879.25
265,2015-07-30,436.9166666666667,,834.3333333333334
265,2015-07-31,495.5416666666667,,579.9583333333334
265,2015-08-01,492.4166666666667,,850.9166666666667
265,2015-08-02,505.2916666666667,,902.7083333333334
265,2015-08-03,390.125,,787.5
265,2015-08-04,283.2916666666667,,680.7083333333334
265,2015-08-05,496.7916666666667,,553.9583333333334
265,2015-08-06,435.625,,435.625
265,2015-08-07,412.375,,659.5
265,2015-08-08,349.9166666666667,,349.9166666666667
265,2015-08-09,494.0,,494.0
265,2015-08-10,252.08333333333334,,252.08333333333334
265,2015-08-11,358.5833333333333,,358.5833333333333
265,2015-08-12,338.625,,695.75
265,2015-08-13,517.625,,915.0416666666667
265,2015-08-14,284.0833333333333,,681.5
265,2015-08-15,330.2916666666667,,727.75
265,2015-08-16,486.3333333333333,,883.7916666666666
265,2015-08-17,475.6666666666667,,873.0833333333334
265,2015-08-18,288.6666666666667,,686.1666666666667
265,2015-08-19,417.7083333333333,,815.1666666666666
265,2015-08-20,215.875,,613.375
265,2015-08-21,393.1666666666667,,790.5416666666667
265,2015-08-22,457.8333333333333,,855.2083333333333
265,2015-08-23,446.7916666666667,,844.2083333333334
265,2015-08-24,422.0416666666667,,819.4583333333334
265,2015-08-25,268.0,,665.375
265,2015-08-26,264.7916666666667,,662.1666666666667
265,2015-08-27,196.95833333333334,,594.375
265,2015-08-28,413.2916666666667,,810.7083333333334
265,2015-08-29,307.875,,705.25
265,2015-08-30,307.9166666666667,,705.3333333333334
265,2015-08-31,307.375,,704.8333333333333
265,2015-09-01,352.4166666666667,,749.8333333333334
265,2015-09-02,342.5833333333333,,740.0416666666666
265,2015-09-03,368.2083333333333,,765.6666666666666
265,2015-09-04,439.2916666666667,,836.7083333333334
265,2015-09-05,374.8333333333333,,772.2916666666666
265,2015-09-06,361.25,,758.7083333333333
265,2015-09-07,422.75,,820.2083333333333
265,2015-09-08,341.0416666666667,,738.5
265,2015-09-09,232.0,,629.4583333333333
265,2015-09-10,297.9166666666667,,664.2916666666667
265,2015-09-11,411.25,,411.25
265,2015-09-12,46.5,,46.5
265,2015-09-13,62.666666666666664,,62.666666666666664
265,2015-09-14,435.9166666666667,,435.9166666666667
265,2015-09-15,447.0,,447.0
265,2015-09-16,431.0416666666667,,431.0416666666667
265,2015-09-17,433.6666666666667,,433.6666666666667
265,2015-09-18,413.0,,413.0
265,2015-09-19,150.08333333333334,,150.08333333333334
265,2015-09-20,463.0416666666667,,463.0416666666667
265,2015-09-21,398.0833333333333,,398.0833333333333
265,2015-09-22,442.2916666666667,,442.2916666666667
265,2015-09-23,447.0,,447.0
265,2015-09-24,394.0833333333333,,394.0833333333333
265,2015-09-25,341.75,,341.75
265,2015-09-26,352.875,,352.875
265,2015-09-27,410.0,,410.0
265,2015-09-28,152.45833333333334,,152.45833333333334
265,2015-09-29,64.625,,64.625
265,2015-09-30,41.625,,41.625
265,2015-10-01,292.875,,292.875
265,2015-10-02,202.125,,202.125
265,2015-10-03,109.25,,109.25
265,2015-10-04,394.0,,394.0
265,2015-10-05,308.5,,308.5
265,2015-10-06,91.29166666666667,,91.29166666666667
265,2015-10-07,307.875,,307.875
265,2015-10-08,382.625,,382.625
265,2015-10-09,71.625,,71.625
265,2015-10-10,378.6666666666667,,378.6666666666667
265,2015-10-11,406.4583333333333,,406.4583333333333
265,2015-10-12,400.0,,400.0
265,2015-10-13,205.91666666666666,,205.91666666666666
265,2015-10-14,138.54166666666666,,138.54166666666666
265,2015-10-15,384.25,,384.25
265,2015-10-16,289.9166666666667,,289.9166666666667
265,2015-10-17,290.7083333333333,,290.7083333333333
265,2015-10-18,178.54166666666666,,178.54166666666666
265,2015-10-19,370.125,,370.125
265,2015-10-20,178.25,,178.25
265,2015-10-21,101.95833333333333,,101.95833333333333
265,2015-10-22,104.29166666666667,,104.29166666666667
265,2015-10-23,362.7083333333333,,362.7083333333333
265,2015-10-24,52.666666666666664,,52.666666666666664
265,2015-10-25,158.29166666666666,,158.29166666666666
265,2015-10-26,362.3333333333333,,362.3333333333333
265,2015-10-27,247.625,,247.625
265,2015-10-28,35.583333333333336,,35.583333333333336
265,2015-10-29,110.08333333333333,,110.08333333333333
265,2015-10-30,232.875,,232.875
265,2015-10-31,176.33333333333334,,176.33333333333334
265,2015-11-01,222.16666666666666,,222.16666666666666
265,2015-11-02,306.5,,306.5
265,2015-11-03,294.625,,294.625
265,2015-11-04,294.0416666666667,,294.0416666666667
265,2015-11-05,142.83333333333334,,142.83333333333334
265,2015-11-06,99.375,,99.375
265,2015-11-07,117.16666666666667,,117.16666666666667
265,2015-11-08,207.5,,207.5
265,2015-11-09,277.8333333333333,,277.8333333333333
265,2015-11-10,41.416666666666664,,41.416666666666664
265,2015-11-11,37.333333333333336,,434.75
265,2015-11-12,94.66666666666667,,492.08333333333337
265,2015-11-13,65.54166666666667,,462.9166666666667
265,2015-11-14,98.83333333333333,,496.2083333333333
265,2015-11-15,241.0,,638.375
265,2015-11-16,230.83333333333334,,628.1666666666666
265,2015-11-17,233.16666666666666,,630.2916666666666
265,2015-11-18,128.83333333333334,,526.2083333333334
265,2015-11-19,116.375,,513.75
265,2015-11-20,85.66666666666667,,483.0416666666667
265,2015-11-21,72.83333333333333,,470.2083333333333
265,2015-11-22,175.79166666666666,,573.125
265,2015-11-23,127.125,,524.4583333333333
265,2015-11-24,100.83333333333333,,498.2083333333333
265,2015-11-25,206.25,,603.5833333333333
265,2015-11-26,127.33333333333333,,524.6666666666666
265,2015-11-27,43.166666666666664,,440.5416666666667
265,2015-11-28,24.375,,421.7083333333333
265,2015-11-29,83.70833333333333,,481.04166666666663
265,2015-11-30,201.58333333333334,,598.9166666666666
265,2015-12-01,24.958333333333332,,422.375
265,2015-12-02,12.291666666666666,,409.6666666666667
265,2015-12-03,60.958333333333336,,458.3333333333333
265,2015-12-04,30.125,,427.5
265,2015-12-05,83.41666666666667,,480.75
265,2015-12-06,151.08333333333334,,548.4583333333334
265,2015-12-07,41.208333333333336,,438.5833333333333
265,2015-12-08,147.08333333333334,,544.4583333333334
265,2015-12-09,166.79166666666666,,564.2083333333334
265,2015-12-10,125.20833333333333,,522.5833333333334
265,2015-12-11,166.75,,564.1666666666667
265,2015-12-12,46.958333333333336,,444.3333333333333
265,2015-12-13,41.75,,439.125
265,2015-12-14,84.25,,481.6666666666667
265,2015-12-15,20.833333333333332,,418.2083333333333
265,2015-12-16,49.0,,446.375
265,2015-12-17,6.833333333333333,,404.25
265,2015-12-18,68.875,,466.2916666666667
265,2015-12-19,107.41666666666667,,504.7916666666667
265,2015-12-20,156.29166666666666,,553.6666666666666
265,2015-12-21,35.708333333333336,,433.125
265,2015-12-22,40.333333333333336,,437.75
265,2015-12-23,46.416666666666664,,443.7916666666667
265,2015-12-24,149.66666666666666,,547.0416666666666
265,2015-12-25,54.25,,451.6666666666667
265,2015-12-26,65.70833333333333,,463.0833333333333
265,2015-12-27,13.916666666666666,,411.33333333333337
265,2015-12-28,56.416666666666664,,453.7916666666667
265,2015-12-29,24.083333333333332,,421.5
265,2015-12-30,84.5,,481.875
265,2015-12-31,22.541666666666668,,419.95833333333337
265,2016-01-01,8.541666666666666,,405.6666666666667
265,2016-01-02,2.0416666666666665,,399.4166666666667
265,2016-01-03,24.291666666666668,,421.70833333333337
265,2016-01-04,6.083333333333333,,403.5
265,2016-01-05,102.45833333333333,,499.79166666666663
265,2016-01-06,167.58333333333334,,564.9583333333334
265,2016-01-07,165.41666666666666,,562.7916666666666
265,2016-01-08,92.20833333333333,,489.5833333333333
265,2016-01-09,54.375,,451.7916666666667
265,2016-01-10,30.833333333333332,,428.2083333333333
265,2016-01-11,164.79166666666666,,562.125
265,2016-01-12,88.91666666666667,,486.33333333333337
265,2016-01-13,132.41666666666666,,529.75
265,2016-01-14,24.0415,,421.4165
265,2016-01-15,83.75,,481.125
265,2016-01-16,45.458333333333336,,442.875
265,2016-01-17,81.70833333333333,,479.0833333333333
265,2016-01-18,107.0,,504.3333333333333
265,2016-01-19,22.708333333333332,,420.0833333333333
265,2016-01-20,72.04166666666667,,469.33333333333337
265,2016-01-21,12.208333333333334,,409.54166666666663
265,2016-01-22,12.791666666666666,,410.08333333333337
265,2016-01-23,5.333333333333333,,402.625
265,2016-01-24,11.083333333333334,,408.41666666666663
265,2016-01-25,44.791666666666664,,442.125
265,2016-01-26,52.291666666666664,,449.6666666666667
265,2016-01-27,42.833333333333336,,440.2083333333333
265,2016-01-28,128.375,,525.75
265,2016-01-29,48.625,,445.9583333333333
265,2016-01-30,142.45833333333334,,539.8333333333334
265,2016-01-31,111.5,,508.8333333333333
265,2016-02-01,154.875,,545.3333333333333
265,2016-02-02,223.875,,621.2083333333333
265,2016-02-03,104.375,,501.75
265,2016-02-04,79.20833333333333,,476.5833333333333
265,2016-02-05,131.125,,528.4583333333333
265,2016-02-06,121.66666666666667,,519.0416666666666
265,2016-02-07,327.0833333333333,,724.4583333333333
265,2016-02-08,117.58333333333333,,514.9583333333334
265,2016-02-09,103.66666666666667,,501.0416666666667
265,2016-02-10,114.75,,512.125
265,2016-02-11,153.33333333333334,,550.6666666666666
265,2016-02-12,225.91666666666666,,623.25
265,2016-02-13,128.41666666666666,,525.7916666666666
265,2016-02-14,124.79166666666667,,522.0833333333334
265,2016-02-15,71.45833333333333,,468.79166666666663
265,2016-02-16,0.0,,397.4166666666667
265,2016-02-17,0.6666666666666666,,398.0
265,2016-02-18,15.583333333333334,,412.875
265,2016-02-19,13.083333333333334,,410.41666666666663
265,2016-02-20,258.1666666666667,,655.5416666666667
265,2016-02-21,138.20833333333334,,535.5833333333334
265,2016-02-22,290.0833333333333,,687.375
265,2016-02-23,336.2916666666667,,733.5833333333334
265,2016-02-24,35.625,,432.7083333333333
265,2016-02-25,87.91666666666667,,485.33333333333337
265,2016-02-26,261.5,,658.8333333333333
265,2016-02-27,230.79166666666666,,628.1666666666666
265,2016-02-28,382.125,,779.5
265,2016-02-29,184.625,,582.0416666666667
265,2016-03-01,230.45833333333334,,627.75
265,2016-03-02,228.66666666666666,,626.0416666666666
265,2016-03-03,206.91666666666666,,604.2083333333334
265,2016-03-04,361.7916666666667,,759.0833333333334
265,2016-03-05,204.45833333333334,,601.7916666666666
265,2016-03-06,464.7916666666667,,862.1666666666667
265,2016-03-07,175.66666666666666,,573.0416666666666
265,2016-03-08,244.45833333333334,,641.8333333333334
265,2016-03-09,293.5416666666667,,690.875
265,2016-03-10,52.291666666666664,,449.70833333333337
265,2016-03-11,201.20833333333334,,598.625
265,2016-03-12,445.5833333333333,,842.9583333333333
265,2016-03-13,239.54166666666666,,320.2083333333333
265,2016-03-14,156.54166666666666,,156.54166666666666
265,2016-03-15,56.25,,56.25
265,2016-03-16,136.41666666666666,,136.41666666666666
265,2016-03-17,391.75,,764.25
265,2016-03-18,98.58333333333333,,496.0
265,2016-03-19,538.3333333333334,,935.7083333333334
265,2016-03-20,449.6666666666667,,847.0
265,2016-03-21,301.9583333333333,,699.3333333333333
265,2016-03-22,304.7083333333333,,702.0833333333333
265,2016-03-23,38.833333333333336,,436.25
265,2016-03-24,136.83333333333334,,534.2083333333334
265,2016-03-25,79.0,,476.375
265,2016-03-26,501.6666666666667,,899.0416666666667
265,2016-03-27,508.2083333333333,,905.5833333333333
265,2016-03-28,107.08333333333333,,504.4583333333333
265,2016-03-29,558.4166666666666,,955.7916666666666
265,2016-03-30,521.4583333333334,,918.8333333333334
265,2016-03-31,85.875,,483.2083333333333
265,2016-04-01,262.2083333333333,,659.5833333333333
265,2016-04-02,344.5833333333333,,741.9583333333333
265,2016-04-03,247.5,,644.875
265,2016-04-04,2.125,,399.5
265,2016-04-05,248.58333333333334,,645.9583333333334
265,2016-04-06,140.20833333333334,,537.5833333333334
265,2016-04-07,177.41666666666666,,574.7916666666666
265,2016-04-08,250.375,,647.75
265,2016-04-09,375.125,,772.5
265,2016-04-10,322.5833333333333,,719.9583333333333
265,2016-04-11,63.541666666666664,,460.9166666666667
265,2016-04-12,232.95833333333334,,630.3333333333334
265,2016-04-13,464.2916666666667,,861.6666666666667
265,2016-04-14,578.875,,976.25
265,2016-04-15,565.6666666666666,,963.0
265,2016-04-16,558.0416666666666,,955.375
265,2016-04-17,559.2083333333334,,956.5416666666667
265,2016-04-18,541.5,,938.875
265,2016-04-19,522.9583333333334,,920.2916666666667
265,2016-04-20,581.5833333333334,,978.9166666666667
265,2016-04-21,327.2083333333333,,724.5416666666666
265,2016-04-22,322.5416666666667,,719.9166666666667
265,2016-04-23,458.5833333333333,,855.9583333333333
265,2016-04-24,478.7916666666667,,876.1666666666667
265,2016-04-25,272.5833333333333,,669.9583333333333
265,2016-04-26,92.33333333333333,,489.7083333333333
265,2016-04-27,591.5,,988.875
265,2016-04-28,374.8333333333333,,772.2083333333333
265,2016-04-29,197.70833333333334,,595.0833333333334
265,2016-04-30,467.75,,865.125
265,2016-05-01,106.95833333333333,,504.3333333333333
265,2016-05-02,101.083375,,498.5000416666667
265,2016-05-03,260.7083333333333,,658.0833333333333
265,2016-05-04,424.4583333333333,,816.6666666666666
265,2016-05-05,529.25,,906.75
265,2016-05-06,335.25,,712.75
265,2016-05-07,442.625,,828.5833333333333
265,2016-05-08,402.5,,799.875
265,2016-05-09,508.5,,905.875
265,2016-05-10,556.2916666666666,,953.6666666666666
265,2016-05-11,473.7083333333333,,846.0
265,2016-05-12,465.7083333333333,,723.375
265,2016-05-13,354.625,,354.625
265,2016-05-14,182.70833333333334,,547.7083333333334
265,2016-05-15,257.6666666666667,,655.0833333333334
265,2016-05-16,560.6666666666666,,958.0
265,2016-05-17,341.3333333333333,,738.7083333333333
265,2016-05-18,563.5833333333334,,960.9583333333334
265,2016-05-19,476.5,,873.875
265,2016-05-20,567.125,,964.5
265,2016-05-21,183.25,,580.6666666666667
265,2016-05-22,520.25,,917.6666666666667
265,2016-05-23,579.625,,973.375
265,2016-05-24,558.7916666666666,,947.0416666666666
265,2016-05-25,264.625,,502.75
265,2016-05-26,0.0,,0.0
265,2016-05-27,0.0,,219.08333333333334
265,2016-05-28,0.0,,366.8333333333333
265,2016-05-29,0.0,,375.3333333333333
265,2016-05-30,0.0,,382.25
265,2016-05-31,0.0,,382.2083333333333
265,2016-06-01,0.0,,397.3333333333333
265,2016-06-02,0.0,,385.4583333333333
265,2016-06-03,0.0,,388.3333333333333
265,2016-06-04,0.0,,386.1666666666667
265,2016-06-05,0.0,,390.625
265,2016-06-06,0.0,,387.9583333333333
265,2016-06-07,112.0,,508.7083333333333
265,2016-06-08,190.95833333333334,,588.3333333333334
265,2016-06-09,599.375,,996.75
265,2016-06-10,554.1666666666666,,951.5416666666666
265,2016-06-11,408.4166666666667,,805.7916666666667
265,2016-06-12,432.5833333333333,,829.9583333333333
265,2016-06-13,220.58333333333334,,617.9583333333334
265,2016-06-14,596.8333333333334,,994.2083333333334
265,2016-06-15,499.5,,896.8333333333333
265,2016-06-16,464.625,,861.9583333333333
265,2016-06-17,575.4583333333334,,972.7916666666667
265,2016-06-18,546.625,,944.0
265,2016-06-19,532.333125,,929.6664583333334
265,2016-06-20,476.5,,873.875
265,2016-06-21,559.5,,956.8333333333333
265,2016-06-22,569.9583333333334,,967.3333333333334
265,2016-06-23,476.875,,874.2083333333333
265,2016-06-24,542.1666666666666,,939.5416666666666
265,2016-06-25,501.2916666666667,,898.625
265,2016-06-26,466.4583333333333,,863.875
265,2016-06-27,489.125,,886.5416666666667
265,2016-06-28,447.0416666666667,,760.6666666666667
265,2016-06-29,381.0416666666667,,728.0833333333334
265,2016-06-30,521.875,,919.25
265,2016-07-01,289.2083333333333,,686.5833333333333
265,2016-07-02,521.0833333333334,,918.4583333333334
265,2016-07-03,493.2083333333333,,890.5833333333333
265,2016-07-04,504.75,,902.125
265,2016-07-05,449.2083333333333,,846.5833333333333
265,2016-07-06,456.5833333333333,,854.0
265,2016-07-07,417.0416666666667,,814.4583333333334
265,2016-07-08,252.70833333333334,,650.0833333333334
265,2016-07-09,361.1666666666667,,758.5833333333334
265,2016-07-10,421.1666666666667,,818.5416666666667
265,2016-07-11,491.0,,888.375
265,2016-07-12,425.1666666666667,,822.5833333333334
265,2016-07-13,418.5416666666667,,815.9583333333334
265,2016-07-14,430.2083333333333,,827.625
265,2016-07-15,471.4583333333333,,867.875
265,2016-07-16,423.5416666666667,,820.9166666666667
265,2016-07-17,415.4583333333333,,812.8333333333333
265,2016-07-18,319.5416666666667,,716.9583333333334
265,2016-07-19,502.125,,899.5
265,2016-07-20,529.4166666666666,,926.75
265,2016-07-21,497.9166666666667,,895.3333333333334
265,2016-07-22,390.9583333333333,,788.375
265,2016-07-23,529.0,,926.375
265,2016-07-24,356.8333333333333,,754.2083333333333
265,2016-07-25,174.5,,571.9583333333333
265,2016-07-26,449.2083333333333,,846.5833333333333
265,2016-07-27,466.125,,863.5416666666667
265,2016-07-28,352.7916666666667,,750.1666666666667
265,2016-07-29,501.9166666666667,,899.2916666666667
265,2016-07-30,340.6666666666667,,738.0416666666667
265,2016-07-31,310.1666666666667,,707.5416666666667
265,2016-08-01,366.125,,763.5416666666667
265,2016-08-02,537.8333333333334,,935.2083333333334
265,2016-08-03,469.75,,867.1666666666667
265,2016-08-04,495.0833333333333,,892.4583333333333
265,2016-08-05,362.625,,760.0416666666667
265,2016-08-06,438.75,,836.1666666666667
265,2016-08-07,439.125,,836.5
265,2016-08-08,520.0833333333334,,917.4583333333334
265,2016-08-09,479.25,,876.625
265,2016-08-10,421.625,,712.2083333333333
265,2016-08-11,425.125,,822.5833333333333
265,2016-08-12,218.33333333333334,,615.7916666666666
265,2016-08-13,0.0,,397.4583333333333
265,2016-08-14,0.0,,397.4583333333333
265,2016-08-15,0.0,,397.4166666666667
265,2016-08-16,0.0,,397.4583333333333
265,2016-08-17,60.25,,457.6666666666667
265,2016-08-18,386.9583333333333,,784.375
265,2016-08-19,451.375,,848.7916666666667
265,2016-08-20,366.0416666666667,,763.5
265,2016-08-21,222.375,,619.7916666666667
265,2016-08-22,472.4166666666667,,869.7916666666667
265,2016-08-23,491.7083333333333,,889.125
265,2016-08-24,497.2083333333333,,894.625
265,2016-08-25,323.125,,720.5833333333333
265,2016-08-26,431.9583333333333,,829.375
265,2016-08-27,479.9583333333333,,877.375
265,2016-08-28,403.5833333333333,,801.0
265,2016-08-29,405.2916666666667,,802.7083333333334
265,2016-08-30,474.0833333333333,,871.5
265,2016-08-31,223.0,,620.4583333333333
265,2016-09-01,441.875,,839.25
265,2016-09-02,431.9583333333333,,829.3333333333333
265,2016-09-03,507.0416666666667,,904.4583333333334
265,2016-09-04,483.8333333333333,,881.2083333333333
265,2016-09-05,476.75,,874.1666666666667
265,2016-09-06,453.6666666666667,,851.0833333333334
265,2016-09-07,328.7083333333333,,726.1666666666666
265,2016-09-08,326.2916666666667,,723.75
265,2016-09-09,360.3333333333333,,757.75
265,2016-09-10,365.5,,762.9583333333333
265,2016-09-11,442.875,,840.2083333333333
265,2016-09-12,473.2916666666667,,870.7083333333334
265,2016-09-13,475.875,,873.25
265,2016-09-14,316.5,,713.9166666666667
265,2016-09-15,433.5416666666667,,830.9166666666667
265,2016-09-16,469.1666666666667,,866.5833333333334
265,2016-09-17,163.58333333333334,,561.0
265,2016-09-18,259.2916666666667,,656.75
265,2016-09-19,376.375,,773.7916666666667
265,2016-09-20,448.4166666666667,,845.8333333333334
265,2016-09-21,428.4583333333333,,825.8333333333333
265,2016-09-22,436.3333333333333,,833.75
265,2016-09-23,49.625,,447.0416666666667
265,2016-09-24,364.0416666666667,,761.4583333333334
265,2016-09-25,485.625,,883.0
265,2016-09-26,253.625,,651.0416666666667
265,2016-09-27,440.625,,838.0
265,2016-09-28,433.5833333333333,,830.9583333333333
265,2016-09-29,83.91666666666667,,481.33333333333337
265,2016-09-30,219.75,,617.1666666666667
265,2016-10-01,117.91666666666667,,515.3333333333334
265,2016-10-02,278.4583333333333,,675.8333333333333
265,2016-10-03,192.75,,590.1666666666667
265,2016-10-04,314.25,,711.6666666666667
265,2016-10-05,443.0833333333333,,840.4583333333333
265,2016-10-06,396.5416666666667,,793.9583333333334
265,2016-10-07,401.5416666666667,,798.9583333333334
265,2016-10-08,135.83333333333334,,532.2083333333334
265,2016-10-09,189.20833333333334,,586.5833333333334
265,2016-10-10,409.9583333333333,,475.66666666666663
265,2016-10-11,324.2083333333333,,324.2083333333333
265,2016-10-12,354.9166666666667,,354.9166666666667
265,2016-10-13,208.75,,208.75
265,2016-10-14,434.9166666666667,,807.3333333333334
265,2016-10-15,408.5833333333333,,805.9583333333333
265,2016-10-16,185.70833333333334,,583.125
265,2016-10-17,122.125,,519.5
265,2016-10-18,194.66666666666666,,592.0833333333334
265,2016-10-19,316.1666666666667,,713.5833333333334
265,2016-10-20,28.833333333333332,,426.25
265,2016-10-21,12.375,,409.7916666666667
265,2016-10-22,68.79166666666667,,466.20833333333337
265,2016-10-23,154.08333333333334,,551.5
265,2016-10-24,125.41666666666667,,522.8333333333334
265,2016-10-25,234.75,,632.1666666666667
265,2016-10-26,120.0,,517.3333333333333
265,2016-10-27,25.583333333333332,,423.0
265,2016-10-28,350.9166666666667,,748.2916666666667
265,2016-10-29,23.833333333333332,,421.2083333333333
265,2016-10-30,57.041666666666664,,454.45833333333337
265,2016-10-31,339.8333333333333,,737.2083333333333
265,2016-11-01,251.79166666666666,,649.1666666666666
265,2016-11-02,109.25,,506.6666666666667
265,2016-11-03,90.875,,488.2916666666667
265,2016-11-04,307.625,,705.0
265,2016-11-05,150.54166666666666,,547.9583333333334
265,2016-11-06,298.0833333333333,,695.4583333333333
265,2016-11-07,300.7916666666667,,698.1666666666667
265,2016-11-08,194.375,,591.7916666666667
265,2016-11-09,75.58333333333333,,472.9583333333333
265,2016-11-10,246.75,,644.1666666666667
265,2016-11-11,165.75,,563.125
265,2016-11-12,271.0833333333333,,668.4583333333333
265,2016-11-13,250.33333333333334,,647.7083333333334
265,2016-11-14,251.875,,649.25